FW6610 Weather Reports


time (UTC)temp
F
wind
direction
speed
knots
gust
knots
rain 1hr
in
rain 24hr
in
rain mn
in
humidity
%
barometer
mb
20200531082033 56 354 1.7 7.8 0.00 0.00 0.00 61 1014.3
20200531081622 56 264 2.6 10.4 0.00 0.00 0.00 62 1014.0
20200531081036 56 301 3.5 10.4 0.00 0.00 0.00 63 1014.0
20200531080527 56 15 2.6 9.6 0.00 0.00 0.00 63 1013.7
20200531080117 56 58 2.6 9.6 0.00 0.00 0.00 64 1013.9
20200531075554 57 275 3.5 12.2 0.00 0.00 0.00 63 1013.9
20200531075029 57 323 4.3 12.2 0.00 0.00 0.00 64 1013.9
20200531074604 57 342 4.3 11.3 0.00 0.00 0.00 64 1013.7
20200531074028 57 3 3.5 11.3 0.00 0.00 0.00 64 1013.7
20200531073533 57 278 4.3 8.7 0.00 0.00 0.00 65 1013.7
20200531073027 57 328 4.3 9.6 0.00 0.00 0.00 65 1013.6
20200531072531 57 333 2.6 9.6 0.00 0.00 0.00 65 1013.7
20200531072042 57 330 3.5 8.7 0.00 0.00 0.00 65 1013.6
20200531071647 57 344 4.3 8.7 0.00 0.00 0.00 65 1013.6
20200531071036 57 271 4.3 12.2 0.00 0.00 0.00 65 1013.5
20200531070529 57 349 3.5 12.2 0.00 0.00 0.00 65 1013.5
20200531070045 57 327 3.5 6.1 0.00 0.00 0.00 65 1013.5
20200531065530 57 10 3.5 7.0 0.00 0.01 0.00 65 1013.4
20200531065028 57 345 2.6 7.0 0.00 0.01 0.00 66 1013.5
20200531064607 57 333 0.9 3.5 0.00 0.01 0.00 66 1013.6
20200531064034 57 305 0.9 2.6 0.00 0.01 0.00 68 1013.6
20200531063529 57 356 0.9 7.0 0.00 0.01 0.00 66 1013.7
20200531063028 58 349 1.7 7.0 0.00 0.01 0.00 65 1013.5
20200531062529 58 321 0.9 8.7 0.00 0.01 0.00 66 1013.7
20200531062034 58 310 2.6 8.7 0.00 0.01 0.00 65 1013.7
20200531061550 58 283 2.6 8.7 0.00 0.01 0.00 66 1013.7
20200531061028 58 316 1.7 8.7 0.00 0.01 0.00 65 1013.6
20200531060528 58 347 2.6 7.8 0.00 0.01 0.00 65 1013.6
20200531060039 58 307 1.7 7.8 0.00 0.01 0.00 66 1013.5
20200531055537 59 210 2.6 7.8 0.00 0.06 0.00 66 1013.3
20200531055027 59 335 2.6 12.2 0.00 0.06 0.00 66 1013.4
20200531054613 59 330 1.7 13.0 0.00 0.06 0.00 66 1013.3
20200531054031 59 349 4.3 13.0 0.00 0.06 0.00 66 1013.3
20200531053532 59 330 5.2 9.6 0.00 0.06 0.00 66 1013.3
20200531053105 59 319 2.6 7.0 0.00 0.06 0.00 67 1013.4
20200531052528 59 4 0.9 7.0 0.00 0.06 0.00 67 1013.4
20200531052031 60 355 0.9 7.0 0.00 0.06 0.00 67 1013.4
20200531051544 60 25 0.0 1.7 0.00 0.06 0.00 67 1013.4
20200531051050 60 26 0.0 3.5 0.00 0.06 0.00 66 1013.2
20200531050542 60 13 0.9 6.1 0.00 0.06 0.00 65 1013.2
20200531050125 61 342 1.7 7.8 0.00 0.06 0.00 65 1013.3
20200531045528 61 162 2.6 9.6 0.00 0.06 0.00 65 1013.3
20200531045027 61 289 3.5 9.6 0.00 0.06 0.00 65 1013.2
20200531044614 61 359 0.9 2.6 0.00 0.06 0.00 67 1013.1
20200531044042 61 227 0.0 6.1 0.00 0.06 0.00 67 1013.0
20200531043530 61 341 0.0 6.1 0.00 0.06 0.00 67 1013.1
20200531043107 61 16 0.0 3.5 0.00 0.06 0.00 68 1013.2
20200531042532 61 17 0.9 3.5 0.00 0.06 0.00 68 1013.1
20200531042031 61 29 0.9 6.1 0.00 0.06 0.00 68 1013.0
20200531041654 62 88 0.9 6.1 0.00 0.06 0.00 67 1013.0
20200531041028 62 23 2.6 6.1 0.00 0.06 0.00 67 1013.0
20200531040532 62 330 0.9 4.3 0.00 0.06 0.00 68 1013.0
20200531040045 62 40 0.9 4.3 0.00 0.06 0.00 68 1013.0
20200531035528 62 290 0.0 7.0 0.00 0.06 0.06 68 1013.1
20200531035027 62 303 1.7 7.8 0.00 0.06 0.06 67 1013.1
20200531034615 62 63 2.6 7.8 0.00 0.06 0.06 67 1013.1
20200531034029 62 2 1.7 7.8 0.00 0.06 0.06 67 1013.1
20200531033531 62 340 1.7 7.0 0.00 0.06 0.06 67 1013.1
20200531033047 62 87 0.9 2.6 0.00 0.06 0.06 66 1013.1
20200531032528 62 359 0.9 2.6 0.00 0.06 0.06 65 1013.0
20200531032028 62 141 0.0 3.5 0.00 0.06 0.06 65 1013.1
20200531031559 63 142 0.0 5.2 0.00 0.06 0.06 64 1012.9
20200531031027 63 340 1.7 7.8 0.00 0.06 0.06 64 1012.9
20200531030529 63 302 2.6 9.6 0.00 0.06 0.06 64 1012.9
20200531030107 63 9 1.7 9.6 0.00 0.06 0.06 64 1012.7
20200531025528 63 307 3.5 14.8 0.00 0.06 0.06 64 1012.8
20200531025028 63 302 3.5 14.8 0.00 0.06 0.06 64 1013.0
20200531024544 63 292 4.3 11.3 0.00 0.06 0.06 65 1013.0
20200531024035 63 285 3.5 12.2 0.00 0.06 0.06 65 1013.0
20200531023528 64 1 4.3 12.2 0.00 0.06 0.06 65 1013.1
20200531023134 64 352 5.2 12.2 0.00 0.06 0.06 65 1013.0
20200531022528 64 8 4.3 10.4 0.00 0.06 0.06 65 1013.0
20200531022028 64 322 3.5 10.4 0.00 0.06 0.06 65 1013.1
20200531021539 64 259 3.5 10.4 0.00 0.06 0.06 65 1012.9
20200531021040 64 309 3.5 9.6 0.00 0.06 0.06 66 1013.0
20200531020531 64 5 3.5 10.4 0.00 0.06 0.06 66 1012.9
20200531020041 64 314 4.3 10.4 0.00 0.06 0.06 66 1012.9
20200531015530 64 290 2.6 8.7 0.00 0.06 0.06 66 1012.9
20200531015033 64 285 4.3 8.7 0.00 0.06 0.06 66 1012.8
20200531014638 64 314 3.5 8.7 0.00 0.06 0.06 67 1012.7
20200531014030 64 359 3.5 11.3 0.00 0.06 0.06 67 1012.5
20200531013537 64 285 4.3 11.3 0.00 0.06 0.06 66 1012.5
20200531013050 65 342 4.3 9.6 0.00 0.06 0.06 65 1012.4
20200531012528 65 300 3.5 13.0 0.00 0.06 0.06 65 1012.5
20200531012027 65 294 4.3 13.0 0.00 0.06 0.06 65 1012.5
20200531011551 66 336 4.3 13.9 0.00 0.06 0.06 64 1012.4
20200531011028 66 335 6.1 14.8 0.00 0.06 0.06 63 1012.4
20200531010528 67 284 7.0 14.8 0.00 0.06 0.06 62 1012.2
20200531010042 68 311 5.2 12.2 0.00 0.06 0.06 61 1012.0
20200531005536 67 301 6.1 11.3 0.00 0.06 0.06 60 1011.8
20200531005030 66 4 0.9 2.6 0.00 0.06 0.06 62 1011.4
20200531004550 66 0 0.0 0.9 0.00 0.06 0.06 61 1011.0
20200531004032 66 0 0.0 0.9 0.00 0.06 0.06 61 1010.9
20200531003527 66 0 0.0 0.0 0.00 0.06 0.06 65 1010.9
20200531003042 66 0 0.0 0.9 0.00 0.06 0.06 63 1010.8
20200531002536 66 0 0.0 0.9 0.00 0.06 0.06 63 1010.7
20200531002030 66 219 0.0 0.9 0.00 0.06 0.06 63 1010.7
20200531001550 67 0 0.0 0.0 0.00 0.06 0.06 61 1010.8
20200531001032 67 219 0.0 0.0 0.00 0.06 0.06 61 1010.8
20200531000531 68 0 0.0 0.0 0.00 0.06 0.06 61 1010.6
20200531000057 68 0 0.0 0.0 0.00 0.06 0.06 59 1010.6
20200530235529 69 0 0.0 0.9 0.00 0.06 0.06 58 1010.5
20200530235028 70 0 0.0 0.9 0.00 0.06 0.06 56 1010.5
20200530234612 71 219 0.0 0.9 0.00 0.06 0.06 51 1010.4
20200530234027 72 219 0.0 1.7 0.00 0.06 0.06 50 1010.5
20200530233528 72 219 0.9 1.7 0.00 0.06 0.06 51 1010.7
20200530233040 73 219 0.0 0.9 0.00 0.06 0.06 47 1010.6
20200530232534 74 229 0.0 0.9 0.00 0.06 0.06 44 1010.6
20200530232027 75 250 0.0 1.7 0.00 0.06 0.06 42 1010.7
20200530231600 76 271 0.9 1.7 0.00 0.06 0.06 41 1010.7
20200530231029 77 0 0.0 1.7 0.00 0.06 0.06 40 1010.6
20200530230527 78 244 0.0 1.7 0.00 0.06 0.06 41 1010.6
20200530230052 78 165 0.0 1.7 0.00 0.06 0.06 40 1010.5
20200530225530 79 283 0.9 1.7 0.00 0.06 0.06 43 1010.3
20200530225034 80 290 0.0 1.7 0.00 0.06 0.06 40 1010.5
20200530224545 79 0 0.0 1.7 0.00 0.06 0.06 39 1010.5
20200530224031 79 293 0.0 2.6 0.00 0.06 0.06 35 1010.6
20200530223528 78 0 0.9 2.6 0.00 0.06 0.06 37 1010.6
20200530223135 78 261 0.9 5.2 0.00 0.06 0.06 35 1010.7
20200530222527 78 89 0.9 5.2 0.00 0.06 0.06 36 1010.7
20200530222030 78 356 2.6 8.7 0.00 0.06 0.06 36 1010.7
20200530221559 78 22 2.6 8.7 0.00 0.06 0.06 38 1010.8
20200530221035 78 328 2.6 5.2 0.00 0.06 0.06 35 1010.7
20200530220530 79 134 1.7 4.3 0.00 0.06 0.06 33 1010.7
20200530220104 78 207 1.7 7.0 0.00 0.06 0.06 35 1010.8
20200530215528 78 292 0.9 7.0 0.00 0.06 0.06 35 1010.7
20200530215047 78 309 1.7 7.8 0.00 0.06 0.06 35 1010.7
20200530214552 78 251 3.5 7.8 0.00 0.06 0.06 36 1010.9
20200530214030 79 258 1.7 7.8 0.00 0.06 0.06 36 1010.9
20200530213530 79 314 2.6 7.8 0.00 0.06 0.06 37 1010.9
20200530213047 78 299 1.7 7.8 0.00 0.06 0.06 35 1010.9
20200530212531 78 9 2.6 7.8 0.00 0.06 0.06 35 1010.7
20200530212028 78 278 2.6 7.8 0.00 0.06 0.06 36 1010.8
20200530211606 78 303 4.3 8.7 0.00 0.06 0.06 34 1010.9
20200530211030 78 7 4.3 10.4 0.00 0.06 0.06 36 1010.9
20200530210533 78 4 3.5 10.4 0.00 0.06 0.06 36 1011.0
20200530210045 78 324 3.5 8.7 0.00 0.06 0.06 35 1010.9
20200530205530 78 328 3.5 8.7 0.00 0.06 0.06 36 1010.8
20200530205030 78 221 3.5 10.4 0.00 0.06 0.06 37 1010.8
20200530204644 78 272 5.2 11.3 0.00 0.06 0.06 36 1010.8
20200530204031 79 271 3.5 11.3 0.00 0.06 0.06 40 1010.7
20200530203532 79 356 3.5 7.0 0.00 0.06 0.06 39 1010.6
20200530203033 78 327 3.5 8.7 0.00 0.06 0.06 41 1010.7
20200530202530 79 303 2.6 8.7 0.00 0.06 0.06 38 1010.6
20200530202030 79 141 2.6 7.8 0.00 0.06 0.06 37 1010.5
20200530201551 79 274 1.7 7.8 0.00 0.06 0.06 40 1010.5
20200530201036 79 86 2.6 7.8 0.00 0.06 0.06 41 1010.4
20200530200527 79 23 1.7 6.1 0.00 0.06 0.06 40 1010.6
20200530200132 79 269 1.7 7.0 0.00 0.06 0.06 40 1010.4
20200530195527 79 39 2.6 9.6 0.00 0.06 0.06 39 1010.6
20200530195030 78 318 3.5 9.6 0.00 0.06 0.06 42 1010.5
20200530194554 79 319 1.7 4.3 0.00 0.06 0.06 41 1010.5
20200530194040 79 277 1.7 4.3 0.00 0.06 0.06 41 1010.6
20200530193527 78 30 0.9 11.3 0.00 0.06 0.06 41 1010.5
20200530193106 77 169 0.9 11.3 0.00 0.06 0.06 46 1010.8
20200530192534 77 0 1.7 5.2 0.00 0.06 0.06 42 1010.6
20200530192036 77 295 1.7 5.2 0.00 0.06 0.06 44 1010.8
20200530191600 77 266 2.6 4.3 0.00 0.06 0.06 44 1010.7
20200530191030 76 148 0.9 6.1 0.00 0.06 0.06 42 1010.7
20200530190531 77 317 2.6 6.1 0.00 0.06 0.06 41 1010.7
20200530190114 78 347 2.6 6.1 0.00 0.06 0.06 46 1010.8
20200530185527 78 329 2.6 5.2 0.00 0.06 0.06 42 1010.7
20200530185030 77 186 1.7 4.3 0.00 0.06 0.06 44 1010.7
20200530184556 77 8 1.7 5.2 0.00 0.06 0.06 45 1010.7
20200530184030 76 312 2.6 10.4 0.00 0.06 0.06 45 1010.8
20200530183530 76 237 1.7 10.4 0.00 0.06 0.06 43 1010.8
20200530183044 77 354 0.9 5.2 0.00 0.06 0.06 44 1010.8
20200530182529 77 248 1.7 5.2 0.00 0.06 0.06 41 1010.8
20200530182026 76 334 0.9 3.5 0.00 0.06 0.06 44 1010.9
20200530181554 76 350 1.7 7.0 0.00 0.06 0.06 44 1010.9
20200530181030 76 323 2.6 7.0 0.00 0.06 0.06 44 1010.9
20200530180530 76 309 3.5 7.0 0.00 0.06 0.06 45 1011.0
20200530180108 76 261 2.6 7.0 0.00 0.06 0.06 44 1011.1
20200530175545 76 330 2.6 7.0 0.00 0.06 0.06 42 1011.2
20200530175030 76 328 1.7 10.4 0.00 0.06 0.06 43 1011.2
20200530174551 76 239 3.5 10.4 0.00 0.06 0.06 46 1011.3
20200530174030 76 323 2.6 6.1 0.00 0.06 0.06 47 1011.3
20200530173530 76 286 0.9 7.0 0.00 0.06 0.06 48 1011.3
20200530173038 76 355 2.6 7.0 0.00 0.06 0.06 46 1011.3
20200530172532 76 253 1.7 5.2 0.00 0.06 0.06 46 1011.2
20200530172031 75 118 1.7 6.1 0.00 0.06 0.06 48 1011.4
20200530171602 75 8 3.5 6.1 0.00 0.06 0.06 49 1011.4
20200530171046 75 18 1.7 8.7 0.00 0.06 0.06 47 1011.4
20200530170530 74 357 3.5 8.7 0.00 0.06 0.06 48 1011.5
20200530170035 74 314 2.6 9.6 0.00 0.06 0.06 47 1011.5
20200530165527 74 25 4.3 9.6 0.00 0.06 0.06 47 1011.6
20200530165038 74 336 2.6 9.6 0.00 0.06 0.06 54 1011.6
20200530164548 73 300 5.2 9.6 0.00 0.06 0.06 48 1011.6
20200530164032 74 350 2.6 7.0 0.00 0.06 0.06 48 1011.7
20200530163534 74 310 3.5 7.0 0.00 0.06 0.06 51 1011.7
20200530163038 74 61 2.6 6.1 0.00 0.06 0.06 52 1011.7
20200530162536 73 38 1.7 6.1 0.00 0.06 0.06 54 1011.7
20200530162030 73 350 2.6 7.0 0.00 0.06 0.06 50 1011.7
20200530161535 73 277 2.6 8.7 0.00 0.06 0.06 53 1011.8
20200530161034 72 8 3.5 11.3 0.00 0.06 0.06 53 1012.1
20200530160535 72 11 4.3 11.3 0.00 0.06 0.06 51 1012.0
20200530160038 73 292 2.6 7.8 0.00 0.06 0.06 54 1012.0
20200530155526 73 259 2.6 7.8 0.00 0.06 0.06 55 1012.1
20200530155030 73 278 2.6 6.1 0.00 0.06 0.06 55 1012.2
20200530154546 73 313 2.6 10.4 0.00 0.06 0.06 53 1012.2
20200530154035 73 330 4.3 10.4 0.00 0.06 0.06 51 1012.3
20200530153551 72 358 2.6 9.6 0.00 0.06 0.06 52 1012.2
20200530153112 72 32 4.3 9.6 0.00 0.06 0.06 52 1012.5
20200530152532 71 349 3.5 7.0 0.00 0.06 0.06 55 1012.5
20200530152034 71 304 3.5 9.6 0.00 0.06 0.06 51 1012.7
20200530151610 72 299 3.5 9.6 0.00 0.06 0.06 56 1012.8
20200530151031 72 295 2.6 9.6 0.00 0.06 0.06 53 1012.5
20200530150534 71 339 3.5 10.4 0.00 0.06 0.06 54 1012.7
20200530150046 71 311 3.5 10.4 0.00 0.06 0.06 53 1012.5
20200530145529 71 359 3.5 10.4 0.00 0.06 0.06 58 1012.6
20200530145034 71 344 3.5 10.4 0.00 0.06 0.06 58 1012.5
20200530144542 71 340 3.5 13.0 0.00 0.06 0.06 58 1012.7
20200530144035 70 28 3.5 13.0 0.00 0.06 0.06 58 1012.7
20200530143531 70 354 4.3 12.2 0.00 0.06 0.06 58 1012.7
20200530143030 70 294 4.3 10.4 0.00 0.06 0.06 59 1012.5
20200530142529 70 253 2.6 7.8 0.00 0.06 0.06 59 1012.3
20200530142033 69 1 3.5 7.8 0.00 0.06 0.06 61 1012.5
20200530141549 69 308 3.5 8.7 0.00 0.06 0.06 60 1012.6
20200530141030 69 24 3.5 8.7 0.00 0.06 0.06 59 1012.5
20200530140532 69 322 1.7 11.3 0.00 0.06 0.06 60 1012.6
20200530140037 69 331 3.5 11.3 0.00 0.06 0.06 61 1012.4
20200530135530 69 15 2.6 9.6 0.00 0.06 0.06 60 1012.5
20200530135054 69 276 4.3 9.6 0.00 0.06 0.06 61 1012.4
20200530134549 68 1 2.6 8.7 0.00 0.06 0.06 63 1012.3
20200530134027 68 216 1.7 12.2 0.00 0.06 0.06 63 1012.2
20200530133550 68 231 7.0 12.2 0.00 0.06 0.06 60 1012.2
20200530133058 69 241 4.3 11.3 0.00 0.06 0.06 61 1012.2
20200530132530 69 271 4.3 13.9 0.00 0.06 0.06 63 1012.3
20200530132029 69 344 3.5 13.9 0.00 0.06 0.06 64 1012.3
20200530131625 69 342 3.5 10.4 0.00 0.06 0.06 64 1012.3
20200530131029 69 350 4.3 9.6 0.00 0.06 0.06 63 1012.3
20200530130546 69 283 2.6 8.7 0.00 0.06 0.06 63 1012.3
20200530130028 68 326 2.6 8.7 0.00 0.06 0.06 61 1012.4
20200530125529 68 339 4.3 11.3 0.00 0.06 0.06 61 1012.4
20200530125029 69 317 4.3 11.3 0.00 0.06 0.06 63 1012.4
20200530124552 69 20 2.6 9.6 0.00 0.06 0.06 62 1012.3
20200530124028 69 308 2.6 9.6 0.00 0.06 0.06 66 1012.2
20200530123536 68 335 2.6 8.7 0.00 0.06 0.06 64 1012.2
20200530123054 67 6 1.7 5.2 0.00 0.06 0.06 70 1012.2
20200530122531 67 43 0.9 5.2 0.00 0.06 0.06 70 1012.1
20200530122041 66 304 0.9 9.6 0.00 0.06 0.06 71 1012.2
20200530121558 66 355 2.6 9.6 0.00 0.06 0.06 71 1012.1
20200530121033 66 326 1.7 6.1 0.00 0.06 0.06 72 1012.1
20200530120534 66 275 0.9 5.2 0.00 0.06 0.06 73 1012.0
20200530120126 66 279 0.9 5.2 0.00 0.06 0.06 74 1012.0
20200530115530 66 32 1.7 6.1 0.00 0.06 0.06 74 1012.1
20200530115028 66 275 2.6 6.1 0.00 0.06 0.06 73 1012.0
20200530114551 66 263 2.6 6.1 0.00 0.06 0.06 74 1012.0
20200530114029 65 297 2.6 6.1 0.00 0.06 0.06 75 1011.8
20200530113537 65 39 1.7 5.2 0.00 0.06 0.06 76 1011.8
20200530113029 66 322 1.7 5.2 0.00 0.06 0.06 76 1011.7
20200530112532 66 293 2.6 14.8 0.00 0.06 0.06 76 1011.7
20200530112029 66 342 1.7 14.8 0.00 0.06 0.06 76 1011.5
20200530111559 66 20 3.5 7.8 0.00 0.06 0.06 78 1011.4
20200530111030 66 314 3.5 7.0 0.00 0.06 0.06 77 1011.3
20200530110529 67 342 2.6 9.6 0.00 0.06 0.06 79 1011.1
20200530110033 67 313 4.3 9.6 0.00 0.06 0.06 82 1011.3
20200530105529 67 5 1.7 7.0 0.00 0.06 0.06 83 1011.2
20200530105028 67 263 1.7 8.7 0.00 0.06 0.06 87 1011.2
20200530104539 67 352 4.3 8.7 0.00 0.06 0.06 87 1011.2
20200530104036 66 330 0.9 3.5 0.00 0.06 0.06 93 1011.0
20200530103529 66 321 0.0 0.0 0.00 0.06 0.06 96 1011.1
20200530103100 66 0 0.0 0.0 0.00 0.06 0.06 95 1011.1
20200530102552 66 0 0.0 0.0 0.00 0.06 0.06 95 1011.0
20200530102029 66 168 0.0 0.9 0.00 0.06 0.06 95 1010.8
20200530101546 66 168 0.0 1.7 0.00 0.06 0.06 95 1010.8
20200530101030 66 136 0.0 1.7 0.00 0.06 0.06 96 1010.7
20200530100534 66 131 0.0 1.7 0.00 0.06 0.06 96 1010.5
20200530100111 66 0 0.0 0.9 0.00 0.06 0.06 96 1010.6
20200530095531 66 127 0.0 0.9 0.00 0.06 0.06 96 1010.6
20200530095028 66 0 0.0 0.9 0.00 0.06 0.06 96 1010.6
20200530094601 66 127 0.0 0.9 0.00 0.06 0.06 96 1010.6
20200530094033 66 127 0.0 0.9 0.00 0.06 0.06 96 1010.4
20200530093537 66 0 0.0 0.9 0.00 0.06 0.06 96 1010.4
20200530093048 66 156 0.0 0.9 0.00 0.06 0.06 96 1010.3
20200530092529 66 0 0.0 0.9 0.00 0.06 0.06 96 1010.2
20200530092048 66 138 0.0 0.9 0.00 0.06 0.06 96 1010.3
20200530091543 66 137 0.0 0.9 0.00 0.06 0.06 96 1010.1
20200530091028 66 0 0.0 0.9 0.00 0.06 0.06 96 1010.2
20200530090529 66 0 0.0 0.9 0.00 0.06 0.06 96 1010.1
20200530090042 66 0 0.0 0.9 0.00 0.06 0.06 96 1010.1
20200530085529 66 138 0.0 0.9 0.00 0.06 0.06 96 1010.2
20200530085029 66 136 0.0 0.9 0.00 0.06 0.06 95 1010.1
20200530084620 66 160 0.0 0.9 0.00 0.06 0.06 95 1010.1
20200530084028 66 165 0.0 1.7 0.00 0.06 0.06 95 1010.2
20200530083533 66 169 0.0 1.7 0.00 0.06 0.06 95 1010.1
20200530083127 67 150 0.0 0.9 0.00 0.06 0.06 95 1010.1
20200530082532 67 146 0.0 0.9 0.00 0.06 0.06 95 1010.2